| time (UTC) | temp F | wind direction | speed MPH | gust MPH | rain 1hr in | rain 24hr in | rain mn in | humidity % | barometer mb |
| 20260502123155 | 51 | 239 | 0.0 | 0.0 | 0.00 | 0.15 | 0.00 | 97 | 1019.4 |
| 20260502122132 | 51 | 239 | 0.0 | 0.0 | 0.00 | 0.15 | 0.00 | 97 | 1019.4 |
| 20260502121153 | 50 | 239 | 0.0 | 0.0 | 0.00 | 0.15 | 0.00 | 97 | 1019.2 |
| 20260502120159 | 50 | 239 | 0.0 | 0.0 | 0.00 | 0.15 | 0.00 | 97 | 1019.0 |
| 20260502115221 | 50 | 239 | 0.0 | 0.0 | 0.00 | 0.18 | 0.00 | 96 | 1018.8 |
| 20260502114206 | 50 | 239 | 0.0 | 0.0 | 0.00 | 0.18 | 0.00 | 96 | 1018.7 |
| 20260502113136 | 51 | 239 | 0.0 | 0.0 | 0.00 | 0.18 | 0.00 | 96 | 1018.5 |
| 20260502112214 | 51 | 35 | 0.0 | 0.0 | 0.00 | 0.18 | 0.00 | 96 | 1018.4 |
| 20260502111130 | 51 | 35 | 0.0 | 1.0 | 0.00 | 0.18 | 0.00 | 96 | 1018.3 |
| 20260502110847 | 51 | 35 | 0.0 | 1.0 | 0.00 | 0.18 | 0.00 | 96 | 1018.2 |
| 20260502110150 | 51 | 35 | 0.0 | 0.0 | 0.00 | 0.18 | 0.00 | 96 | 1018.2 |
| 20260502105211 | 51 | 35 | 0.0 | 0.0 | 0.00 | 0.19 | 0.00 | 96 | 1018.2 |
| 20260502103154 | 51 | 35 | 0.0 | 0.0 | 0.00 | 0.19 | 0.00 | 96 | 1018.0 |
| 20260502102132 | 52 | 35 | 0.0 | 0.0 | 0.00 | 0.19 | 0.00 | 96 | 1018.0 |
| 20260502101201 | 52 | 35 | 0.0 | 0.0 | 0.00 | 0.19 | 0.00 | 96 | 1017.9 |
| 20260502100209 | 52 | 35 | 0.0 | 0.0 | 0.00 | 0.19 | 0.00 | 96 | 1017.8 |
| 20260502091137 | 53 | 35 | 0.0 | 0.0 | 0.00 | 0.19 | 0.00 | 95 | 1017.5 |
| 20260502090233 | 53 | 35 | 0.0 | 0.0 | 0.00 | 0.19 | 0.00 | 95 | 1017.4 |
| 20260502070140 | 54 | 35 | 0.0 | 0.0 | 0.00 | 0.19 | 0.00 | 95 | 1017.7 |
| 20260502065159 | 54 | 35 | 0.0 | 0.0 | 0.00 | 0.19 | 0.00 | 95 | 1017.7 |
| 20260502064146 | 54 | 35 | 0.0 | 0.0 | 0.00 | 0.19 | 0.00 | 95 | 1017.6 |
| 20260502063134 | 55 | 35 | 0.0 | 1.0 | 0.00 | 0.19 | 0.00 | 95 | 1017.6 |
| 20260502062142 | 55 | 35 | 0.0 | 0.0 | 0.00 | 0.19 | 0.00 | 95 | 1017.6 |
| 20260502061129 | 55 | 35 | 0.0 | 0.0 | 0.00 | 0.19 | 0.00 | 95 | 1017.6 |
| 20260502060127 | 55 | 35 | 0.0 | 0.0 | 0.00 | 0.19 | 0.00 | 95 | 1017.5 |
| 20260502055135 | 55 | 35 | 0.0 | 0.0 | 0.00 | 0.19 | 0.00 | 95 | 1017.6 |
| 20260502054124 | 55 | 35 | 0.0 | 0.0 | 0.00 | 0.19 | 0.00 | 96 | 1017.5 |
| 20260502053132 | 55 | 35 | 0.0 | 0.0 | 0.00 | 0.19 | 0.00 | 96 | 1017.4 |
| 20260502052150 | 55 | 35 | 0.0 | 0.0 | 0.00 | 0.19 | 0.00 | 95 | 1017.3 |
| 20260502051207 | 55 | 35 | 0.0 | 0.0 | 0.00 | 0.19 | 0.00 | 95 | 1017.3 |
| 20260502050842 | 55 | 35 | 0.0 | 0.0 | 0.00 | 0.19 | 0.00 | 95 | 1017.3 |
| 20260502050146 | 56 | 35 | 0.0 | 0.0 | 0.00 | 0.19 | 0.00 | 95 | 1017.3 |
| 20260502045220 | 56 | 35 | 0.0 | 0.0 | 0.00 | 0.19 | 0.19 | 95 | 1017.3 |
| 20260502043158 | 56 | 35 | 0.0 | 0.0 | 0.00 | 0.19 | 0.19 | 95 | 1017.3 |
| 20260502042210 | 56 | 35 | 0.0 | 0.0 | 0.00 | 0.19 | 0.19 | 95 | 1017.2 |
| 20260502041148 | 56 | 35 | 0.0 | 0.0 | 0.00 | 0.19 | 0.19 | 95 | 1017.1 |
| 20260502040224 | 56 | 35 | 0.0 | 0.0 | 0.00 | 0.19 | 0.19 | 94 | 1017.2 |
| 20260502034152 | 56 | 35 | 0.0 | 0.0 | 0.00 | 0.19 | 0.19 | 94 | 1017.1 |
| 20260502033138 | 56 | 35 | 0.0 | 0.0 | 0.00 | 0.19 | 0.19 | 94 | 1017.2 |
| 20260502032211 | 56 | 35 | 0.0 | 0.0 | 0.00 | 0.19 | 0.19 | 94 | 1017.3 |
| 20260502031237 | 56 | 35 | 0.0 | 1.0 | 0.00 | 0.19 | 0.19 | 94 | 1017.2 |
| 20260502025148 | 56 | 35 | 0.0 | 0.0 | 0.00 | 0.19 | 0.19 | 92 | 1016.5 |
| 20260502024215 | 56 | 35 | 0.0 | 0.0 | 0.00 | 0.19 | 0.19 | 92 | 1016.4 |
| 20260502023145 | 56 | 35 | 0.0 | 0.0 | 0.00 | 0.19 | 0.19 | 92 | 1016.4 |
| 20260502022159 | 56 | 35 | 0.0 | 1.0 | 0.00 | 0.19 | 0.19 | 92 | 1016.3 |
| 20260502021229 | 56 | 35 | 0.0 | 3.0 | 0.00 | 0.19 | 0.19 | 93 | 1016.3 |
| 20260502020216 | 56 | 32 | 0.0 | 2.0 | 0.00 | 0.19 | 0.19 | 93 | 1016.2 |
| 20260502014148 | 57 | 62 | 0.0 | 2.0 | 0.00 | 0.19 | 0.19 | 92 | 1016.7 |
| 20260502013215 | 57 | 62 | 0.0 | 1.0 | 0.00 | 0.19 | 0.19 | 92 | 1016.6 |
| 20260502010212 | 57 | 62 | 0.0 | 1.0 | 0.00 | 0.19 | 0.19 | 90 | 1016.1 |
| 20260502005124 | 57 | 62 | 0.0 | 2.0 | 0.00 | 0.19 | 0.19 | 89 | 1015.5 |
| 20260502004204 | 57 | 59 | 1.0 | 2.0 | 0.00 | 0.19 | 0.19 | 90 | 1014.9 |
| 20260502003234 | 57 | 59 | 0.0 | 3.0 | 0.00 | 0.19 | 0.19 | 89 | 1015.4 |
| 20260502002143 | 57 | 59 | 0.0 | 2.0 | 0.00 | 0.19 | 0.19 | 89 | 1015.1 |
| 20260502001213 | 58 | 58 | 0.0 | 3.0 | 0.00 | 0.19 | 0.19 | 88 | 1015.2 |
| 20260502000207 | 58 | 76 | 1.0 | 3.0 | 0.00 | 0.19 | 0.19 | 87 | 1015.1 |
| 20260501235126 | 58 | 65 | 0.0 | 5.0 | 0.00 | 0.19 | 0.19 | 87 | 1015.2 |
| 20260501233159 | 58 | 71 | 0.0 | 5.0 | 0.00 | 0.19 | 0.19 | 85 | 1014.9 |
| 20260501232141 | 58 | 64 | 2.0 | 5.0 | 0.00 | 0.19 | 0.19 | 84 | 1014.6 |
| 20260501231211 | 58 | 55 | 1.0 | 8.0 | 0.00 | 0.19 | 0.19 | 83 | 1015.0 |
| 20260501230927 | 58 | 89 | 2.0 | 8.0 | 0.00 | 0.19 | 0.19 | 82 | 1014.7 |
| 20260501230223 | 58 | 94 | 3.0 | 8.0 | 0.00 | 0.19 | 0.19 | 83 | 1014.1 |
| 20260501225157 | 59 | 43 | 2.0 | 8.0 | 0.00 | 0.19 | 0.19 | 83 | 1014.3 |
| 20260501224205 | 59 | 56 | 1.0 | 11.0 | 0.00 | 0.19 | 0.19 | 84 | 1014.4 |
| 20260501223128 | 59 | 49 | 2.0 | 6.0 | 0.00 | 0.19 | 0.19 | 82 | 1014.4 |
| 20260501222154 | 59 | 90 | 3.0 | 8.0 | 0.00 | 0.19 | 0.19 | 82 | 1014.0 |
| 20260501221142 | 59 | 76 | 1.0 | 5.0 | 0.00 | 0.19 | 0.19 | 84 | 1014.3 |
| 20260501220207 | 59 | 113 | 2.0 | 6.0 | 0.00 | 0.19 | 0.19 | 82 | 1013.9 |
| 20260501215131 | 59 | 66 | 2.0 | 8.0 | 0.00 | 0.20 | 0.19 | 84 | 1013.3 |
| 20260501214213 | 59 | 5 | 2.0 | 10.0 | 0.00 | 0.20 | 0.19 | 84 | 1012.9 |
| 20260501213131 | 59 | 36 | 3.0 | 10.0 | 0.00 | 0.20 | 0.19 | 85 | 1012.7 |
| 20260501212151 | 59 | 49 | 2.0 | 6.0 | 0.00 | 0.20 | 0.19 | 85 | 1013.0 |
| 20260501211137 | 59 | 117 | 1.0 | 6.0 | 0.00 | 0.20 | 0.19 | 85 | 1013.2 |
| 20260501210154 | 59 | 5 | 2.0 | 6.0 | 0.00 | 0.20 | 0.19 | 84 | 1013.4 |
| 20260501205206 | 59 | 51 | 2.0 | 6.0 | 0.01 | 0.21 | 0.19 | 85 | 1014.2 |
| 20260501204129 | 58 | 45 | 3.0 | 9.0 | 0.01 | 0.21 | 0.19 | 83 | 1014.4 |
| 20260501203210 | 58 | 51 | 3.0 | 9.0 | 0.01 | 0.21 | 0.19 | 84 | 1014.7 |
| 20260501202131 | 59 | 78 | 2.0 | 6.0 | 0.01 | 0.21 | 0.19 | 83 | 1015.3 |
| 20260501201204 | 59 | 5 | 2.0 | 10.0 | 0.01 | 0.21 | 0.19 | 85 | 1015.1 |
| 20260501200835 | 59 | 86 | 1.0 | 13.0 | 0.01 | 0.21 | 0.19 | 84 | 1014.7 |
| 20260501200221 | 59 | 355 | 2.0 | 13.0 | 0.01 | 0.21 | 0.19 | 83 | 1014.1 |
| 20260501195141 | 59 | 65 | 3.0 | 10.0 | 0.00 | 0.20 | 0.18 | 85 | 1013.0 |
| 20260501194222 | 58 | 91 | 5.0 | 11.0 | 0.00 | 0.20 | 0.18 | 84 | 1012.8 |
| 20260501193130 | 58 | 55 | 3.0 | 14.0 | 0.00 | 0.20 | 0.18 | 88 | 1012.7 |
| 20260501192200 | 58 | 34 | 2.0 | 16.0 | 0.00 | 0.20 | 0.18 | 92 | 1012.6 |
| 20260501191128 | 57 | 56 | 3.0 | 11.0 | 0.00 | 0.20 | 0.18 | 95 | 1012.8 |
| 20260501190216 | 56 | 76 | 2.0 | 10.0 | 0.00 | 0.20 | 0.18 | 96 | 1013.4 |
| 20260501185146 | 55 | 64 | 3.0 | 11.0 | 0.01 | 0.28 | 0.18 | 97 | 1013.4 |
| 20260501184212 | 55 | 44 | 3.0 | 13.0 | 0.01 | 0.28 | 0.18 | 97 | 1013.6 |
| 20260501183148 | 55 | 55 | 3.0 | 9.0 | 0.01 | 0.28 | 0.18 | 97 | 1013.9 |
| 20260501182222 | 55 | 64 | 2.0 | 10.0 | 0.01 | 0.28 | 0.18 | 97 | 1014.5 |
| 20260501181142 | 55 | 302 | 2.0 | 7.0 | 0.01 | 0.28 | 0.18 | 97 | 1014.8 |
| 20260501180207 | 55 | 78 | 1.0 | 7.0 | 0.01 | 0.28 | 0.18 | 97 | 1015.1 |
| 20260501175212 | 55 | 45 | 3.0 | 7.0 | 0.00 | 0.37 | 0.17 | 97 | 1015.3 |
| 20260501174140 | 55 | 59 | 1.0 | 8.0 | 0.00 | 0.37 | 0.17 | 97 | 1015.5 |
| 20260501173221 | 55 | 14 | 3.0 | 8.0 | 0.00 | 0.37 | 0.17 | 97 | 1015.4 |
| 20260501172148 | 55 | 53 | 2.0 | 9.0 | 0.01 | 0.37 | 0.17 | 97 | 1015.4 |
| 20260501171226 | 55 | 134 | 2.0 | 9.0 | 0.01 | 0.37 | 0.17 | 97 | 1016.0 |
| 20260501170908 | 55 | 78 | 3.0 | 9.0 | 0.01 | 0.37 | 0.17 | 97 | 1016.1 |
| 20260501170212 | 54 | 88 | 2.0 | 11.0 | 0.01 | 0.37 | 0.17 | 97 | 1016.2 |
| 20260501164144 | 55 | 82 | 1.0 | 5.0 | 0.02 | 0.37 | 0.17 | 97 | 1016.2 |